Year,Month,Day,Hour,Minute,Value (Times are PST for temperature in C)
2017,06,23,00,00,13.70
2017,06,23,00,01,13.70
2017,06,23,00,02,13.70
2017,06,23,00,03,13.70
2017,06,23,00,04,13.70
2017,06,23,00,05,13.70
2017,06,23,00,06,13.70
2017,06,23,00,07,13.70
2017,06,23,00,08,13.60
2017,06,23,00,09,13.60
2017,06,23,00,10,13.60
2017,06,23,00,11,13.60
2017,06,23,00,12,13.60
2017,06,23,00,13,13.50
2017,06,23,00,14,13.50
2017,06,23,00,15,13.50
2017,06,23,00,16,13.40
2017,06,23,00,17,13.40
2017,06,23,00,18,13.40
2017,06,23,00,19,13.40
2017,06,23,00,20,13.40
2017,06,23,00,21,13.40
2017,06,23,00,22,13.30
2017,06,23,00,23,13.30
2017,06,23,00,24,13.30
2017,06,23,00,25,13.30
2017,06,23,00,26,13.30
2017,06,23,00,27,13.20
2017,06,23,00,28,13.20
2017,06,23,00,29,13.20
2017,06,23,00,30,13.20
2017,06,23,00,31,13.20
2017,06,23,00,32,13.20
2017,06,23,00,33,13.20
2017,06,23,00,34,13.20
2017,06,23,00,35,13.20
2017,06,23,00,36,13.20
2017,06,23,00,37,13.20
2017,06,23,00,38,13.20
2017,06,23,00,39,13.20
2017,06,23,00,40,13.20
2017,06,23,00,41,13.20
2017,06,23,00,42,13.10
2017,06,23,00,43,13.10
2017,06,23,00,44,13.10
2017,06,23,00,45,13.10
2017,06,23,00,46,13.00
2017,06,23,00,47,13.00
2017,06,23,00,48,12.90
2017,06,23,00,49,12.90
2017,06,23,00,50,12.90
2017,06,23,00,51,12.90
2017,06,23,00,52,12.90
2017,06,23,00,53,12.90
2017,06,23,00,54,12.90
2017,06,23,00,55,12.80
2017,06,23,00,56,12.80
2017,06,23,00,57,12.80
2017,06,23,00,58,12.80
2017,06,23,00,59,12.80
2017,06,23,01,00,12.70
2017,06,23,01,01,12.70
2017,06,23,01,02,12.70
2017,06,23,01,03,12.70
2017,06,23,01,04,12.70
2017,06,23,01,05,12.70
2017,06,23,01,06,12.60
2017,06,23,01,07,12.60
2017,06,23,01,08,12.60
2017,06,23,01,09,12.60
2017,06,23,01,10,12.50
2017,06,23,01,11,12.50
2017,06,23,01,12,12.50
2017,06,23,01,13,12.50
2017,06,23,01,14,12.50
2017,06,23,01,15,12.50
2017,06,23,01,16,12.40
2017,06,23,01,17,12.40
2017,06,23,01,18,12.40
2017,06,23,01,19,12.40
2017,06,23,01,20,12.40
2017,06,23,01,21,12.30
2017,06,23,01,22,12.30
2017,06,23,01,23,12.30
2017,06,23,01,24,12.30
2017,06,23,01,25,12.20
2017,06,23,01,26,12.20
2017,06,23,01,27,12.20
2017,06,23,01,28,12.10
2017,06,23,01,29,12.10
2017,06,23,01,30,12.00
2017,06,23,01,31,12.00
2017,06,23,01,32,12.00
2017,06,23,01,33,11.90
2017,06,23,01,34,11.90
2017,06,23,01,35,11.90
2017,06,23,01,36,11.90
2017,06,23,01,37,11.90
2017,06,23,01,38,11.90
2017,06,23,01,39,11.80
2017,06,23,01,40,11.80
2017,06,23,01,41,11.80
2017,06,23,01,42,11.80
2017,06,23,01,43,11.80
2017,06,23,01,44,11.80
2017,06,23,01,45,11.80
2017,06,23,01,46,11.80
2017,06,23,01,47,11.70
2017,06,23,01,48,11.70
2017,06,23,01,49,11.70
2017,06,23,01,50,11.70
2017,06,23,01,51,11.60
2017,06,23,01,52,11.60
2017,06,23,01,53,11.60
2017,06,23,01,54,11.60
2017,06,23,01,55,11.60
2017,06,23,01,56,11.60
2017,06,23,01,57,11.50
2017,06,23,01,58,11.50
2017,06,23,01,59,11.50
2017,06,23,02,00,11.50
2017,06,23,02,01,11.50
2017,06,23,02,02,11.50
2017,06,23,02,03,11.50
2017,06,23,02,04,11.50
2017,06,23,02,05,11.50
2017,06,23,02,06,11.50
2017,06,23,02,07,11.50
2017,06,23,02,08,11.50
2017,06,23,02,09,11.50
2017,06,23,02,10,11.50
2017,06,23,02,11,11.50
2017,06,23,02,12,11.40
2017,06,23,02,13,11.40
2017,06,23,02,14,11.40
2017,06,23,02,15,11.40
2017,06,23,02,16,11.30
2017,06,23,02,17,11.30
2017,06,23,02,18,11.30
2017,06,23,02,19,11.30
2017,06,23,02,20,11.30
2017,06,23,02,21,11.30
2017,06,23,02,22,11.30
2017,06,23,02,23,11.30
2017,06,23,02,24,11.30
2017,06,23,02,25,11.20
2017,06,23,02,26,11.20
2017,06,23,02,27,11.20
2017,06,23,02,28,11.20
2017,06,23,02,29,11.20
2017,06,23,02,30,11.20
2017,06,23,02,31,11.20
2017,06,23,02,32,11.20
2017,06,23,02,33,11.20
2017,06,23,02,34,11.10
2017,06,23,02,35,11.10
2017,06,23,02,36,11.10
2017,06,23,02,37,11.10
2017,06,23,02,38,11.10
2017,06,23,02,39,11.10
2017,06,23,02,40,11.00
2017,06,23,02,41,11.00
2017,06,23,02,42,11.00
2017,06,23,02,43,11.00
2017,06,23,02,44,11.00
2017,06,23,02,45,11.00
2017,06,23,02,46,11.00
2017,06,23,02,47,11.00
2017,06,23,02,48,11.00
2017,06,23,02,49,10.90
2017,06,23,02,50,10.90
2017,06,23,02,51,10.90
2017,06,23,02,52,10.80
2017,06,23,02,53,10.80
2017,06,23,02,54,10.80
2017,06,23,02,55,10.80
2017,06,23,02,56,10.80
2017,06,23,02,57,10.80
2017,06,23,02,58,10.80
2017,06,23,02,59,10.80
2017,06,23,03,00,10.80
2017,06,23,03,01,10.80
2017,06,23,03,02,10.70
2017,06,23,03,03,10.70
2017,06,23,03,04,10.70
2017,06,23,03,05,10.70
2017,06,23,03,06,10.70
2017,06,23,03,07,10.70
2017,06,23,03,08,10.70
2017,06,23,03,09,10.70
2017,06,23,03,10,10.60
2017,06,23,03,11,10.60
2017,06,23,03,12,10.60
2017,06,23,03,13,10.60
2017,06,23,03,14,10.60
2017,06,23,03,15,10.60
2017,06,23,03,16,10.60
2017,06,23,03,17,10.60
2017,06,23,03,18,10.60
2017,06,23,03,19,10.60
2017,06,23,03,20,10.60
2017,06,23,03,21,10.60
2017,06,23,03,22,10.60
2017,06,23,03,23,10.60
2017,06,23,03,24,10.60
2017,06,23,03,25,10.60
2017,06,23,03,26,10.50
2017,06,23,03,27,10.50
2017,06,23,03,28,10.50
2017,06,23,03,29,10.50
2017,06,23,03,30,10.40
2017,06,23,03,31,10.40
2017,06,23,03,32,10.40
2017,06,23,03,33,10.40
2017,06,23,03,34,10.40
2017,06,23,03,35,10.40
2017,06,23,03,36,10.40
2017,06,23,03,37,10.40
2017,06,23,03,38,10.40
2017,06,23,03,39,10.40
2017,06,23,03,40,10.40
2017,06,23,03,41,10.40
2017,06,23,03,42,10.40
2017,06,23,03,43,10.40
2017,06,23,03,44,10.30
2017,06,23,03,45,10.30
2017,06,23,03,46,10.30
2017,06,23,03,47,10.30
2017,06,23,03,48,10.20
2017,06,23,03,49,10.20
2017,06,23,03,50,10.20
2017,06,23,03,51,10.20
2017,06,23,03,52,10.10
2017,06,23,03,53,10.10
2017,06,23,03,54,10.10
2017,06,23,03,55,10.10
2017,06,23,03,56,10.00
2017,06,23,03,57,10.00
2017,06,23,03,58,10.00
2017,06,23,03,59,10.00
2017,06,23,04,00,9.90
2017,06,23,04,01,9.90
2017,06,23,04,02,9.90
2017,06,23,04,03,9.90
2017,06,23,04,04,9.80
2017,06,23,04,05,9.80
2017,06,23,04,06,9.80
2017,06,23,04,07,9.80
2017,06,23,04,08,9.80
2017,06,23,04,09,9.80
2017,06,23,04,10,9.80
2017,06,23,04,11,9.70
2017,06,23,04,12,9.70
2017,06,23,04,13,9.70
2017,06,23,04,14,9.70
2017,06,23,04,15,9.70
2017,06,23,04,16,9.70
2017,06,23,04,17,9.70
2017,06,23,04,18,9.70
2017,06,23,04,19,9.70
2017,06,23,04,20,9.70
2017,06,23,04,21,9.70
2017,06,23,04,22,9.70
2017,06,23,04,23,9.70
2017,06,23,04,24,9.70
2017,06,23,04,25,9.70
2017,06,23,04,26,9.70
2017,06,23,04,27,9.70
2017,06,23,04,28,9.70
2017,06,23,04,29,9.70
2017,06,23,04,30,9.70
2017,06,23,04,31,9.70
2017,06,23,04,32,9.70
2017,06,23,04,33,9.70
2017,06,23,04,34,9.70
2017,06,23,04,35,9.70
2017,06,23,04,36,9.70
2017,06,23,04,37,9.70
2017,06,23,04,38,9.70
2017,06,23,04,39,9.70
2017,06,23,04,40,9.70
2017,06,23,04,41,9.70
2017,06,23,04,42,9.70
2017,06,23,04,43,9.70
2017,06,23,04,44,9.70
2017,06,23,04,45,9.70
2017,06,23,04,46,9.60
2017,06,23,04,47,9.60
2017,06,23,04,48,9.60
2017,06,23,04,49,9.60
2017,06,23,04,50,9.60
2017,06,23,04,51,9.60
2017,06,23,04,52,9.60
2017,06,23,04,53,9.60
2017,06,23,04,54,9.60
2017,06,23,04,55,9.50
2017,06,23,04,56,9.60
2017,06,23,04,57,9.50
2017,06,23,04,58,9.50
2017,06,23,04,59,9.60
2017,06,23,05,00,9.60
2017,06,23,05,01,9.60
2017,06,23,05,02,9.60
2017,06,23,05,03,9.60
2017,06,23,05,04,9.60
2017,06,23,05,05,9.50
2017,06,23,05,06,9.50
2017,06,23,05,07,9.50
2017,06,23,05,08,9.50
2017,06,23,05,09,9.40
2017,06,23,05,10,9.40
2017,06,23,05,11,9.40
2017,06,23,05,12,9.40
2017,06,23,05,13,9.30
2017,06,23,05,14,9.30
2017,06,23,05,15,9.30
2017,06,23,05,16,9.30
2017,06,23,05,17,9.30
2017,06,23,05,18,9.30
2017,06,23,05,19,9.30
2017,06,23,05,20,9.30
2017,06,23,05,21,9.30
2017,06,23,05,22,9.30
2017,06,23,05,23,9.30
2017,06,23,05,24,9.30
2017,06,23,05,25,9.30
2017,06,23,05,26,9.30
2017,06,23,05,27,9.30
2017,06,23,05,28,9.30
2017,06,23,05,29,9.30
2017,06,23,05,30,9.30
2017,06,23,05,31,9.30
2017,06,23,05,32,9.30
2017,06,23,05,33,9.30
2017,06,23,05,34,9.30
2017,06,23,05,35,9.30
2017,06,23,05,36,9.30
2017,06,23,05,37,9.30
2017,06,23,05,38,9.30
2017,06,23,05,39,9.30
2017,06,23,05,40,9.30
2017,06,23,05,41,9.40
2017,06,23,05,42,9.40
2017,06,23,05,43,9.50
2017,06,23,05,44,9.50
2017,06,23,05,45,9.50
2017,06,23,05,46,9.50
2017,06,23,05,47,9.50
2017,06,23,05,48,9.60
2017,06,23,05,49,9.60
2017,06,23,05,50,9.60
2017,06,23,05,51,9.70
2017,06,23,05,52,9.70
2017,06,23,05,53,9.70
2017,06,23,05,54,9.80
2017,06,23,05,55,9.90
2017,06,23,05,56,9.90
2017,06,23,05,57,10.00
2017,06,23,05,58,10.00
2017,06,23,05,59,10.10
2017,06,23,06,00,10.10
2017,06,23,06,01,10.20
2017,06,23,06,02,10.30
2017,06,23,06,03,10.30
2017,06,23,06,04,10.40
2017,06,23,06,05,10.50
2017,06,23,06,06,10.60
2017,06,23,06,07,10.60
2017,06,23,06,08,10.70
2017,06,23,06,09,10.80
2017,06,23,06,10,10.80
2017,06,23,06,11,10.80
2017,06,23,06,12,10.80
2017,06,23,06,13,10.90
2017,06,23,06,14,10.90
2017,06,23,06,15,10.90
2017,06,23,06,16,11.00
2017,06,23,06,17,11.10
2017,06,23,06,18,11.10
2017,06,23,06,19,11.20
2017,06,23,06,20,11.20
2017,06,23,06,21,11.20
2017,06,23,06,22,11.30
2017,06,23,06,23,11.30
2017,06,23,06,24,11.30
2017,06,23,06,25,11.30
2017,06,23,06,26,11.40
2017,06,23,06,27,11.40
2017,06,23,06,28,11.40
2017,06,23,06,29,11.40
2017,06,23,06,30,11.40
2017,06,23,06,31,11.50
2017,06,23,06,32,11.50
2017,06,23,06,33,11.50
2017,06,23,06,34,11.60
2017,06,23,06,35,11.60
2017,06,23,06,36,11.70
2017,06,23,06,37,11.70
2017,06,23,06,38,11.70
2017,06,23,06,39,11.80
2017,06,23,06,40,11.80
2017,06,23,06,41,11.80
2017,06,23,06,42,11.90
2017,06,23,06,43,12.00
2017,06,23,06,44,12.00
2017,06,23,06,45,12.10
2017,06,23,06,46,12.20
2017,06,23,06,47,12.30
2017,06,23,06,48,12.40
2017,06,23,06,49,12.60
2017,06,23,06,50,12.80
2017,06,23,06,51,13.10
2017,06,23,06,52,13.40
2017,06,23,06,53,13.60
2017,06,23,06,54,13.70
2017,06,23,06,55,13.80
2017,06,23,06,56,13.80
2017,06,23,06,57,13.90
2017,06,23,06,58,13.90
2017,06,23,06,59,13.90
2017,06,23,07,00,13.90
2017,06,23,07,01,14.00
2017,06,23,07,02,14.10
2017,06,23,07,03,14.20
2017,06,23,07,04,14.30
2017,06,23,07,05,14.40
2017,06,23,07,06,14.50
2017,06,23,07,07,14.60
2017,06,23,07,08,14.80
2017,06,23,07,09,14.80
2017,06,23,07,10,14.90
2017,06,23,07,11,14.90
2017,06,23,07,12,14.90
2017,06,23,07,13,14.90
2017,06,23,07,14,14.90
2017,06,23,07,15,14.90
2017,06,23,07,16,14.90
2017,06,23,07,17,14.90
2017,06,23,07,18,14.90
2017,06,23,07,19,14.90
2017,06,23,07,20,14.90
2017,06,23,07,21,14.90
2017,06,23,07,22,14.90
2017,06,23,07,23,15.00
2017,06,23,07,24,15.00
2017,06,23,07,25,15.10
2017,06,23,07,26,15.20
2017,06,23,07,27,15.20
2017,06,23,07,28,15.20
2017,06,23,07,29,15.30
2017,06,23,07,30,15.30
2017,06,23,07,31,15.40
2017,06,23,07,32,15.50
2017,06,23,07,33,15.60
2017,06,23,07,34,15.60
2017,06,23,07,35,15.70
2017,06,23,07,36,15.80
2017,06,23,07,37,15.90
2017,06,23,07,38,16.00
2017,06,23,07,39,16.20
2017,06,23,07,40,16.30
2017,06,23,07,41,16.50
2017,06,23,07,42,16.60
2017,06,23,07,43,16.70
2017,06,23,07,44,16.70
2017,06,23,07,45,16.70
2017,06,23,07,46,16.70
2017,06,23,07,47,16.70
2017,06,23,07,48,16.70
2017,06,23,07,49,16.80
2017,06,23,07,50,16.80
2017,06,23,07,51,16.90
2017,06,23,07,52,16.90
2017,06,23,07,53,16.90
2017,06,23,07,54,17.00
2017,06,23,07,55,17.10
2017,06,23,07,56,17.10
2017,06,23,07,57,17.20
2017,06,23,07,58,17.30
2017,06,23,07,59,17.30
2017,06,23,08,00,17.40
2017,06,23,08,01,17.50
2017,06,23,08,02,17.60
2017,06,23,08,03,17.70
2017,06,23,08,04,17.80
2017,06,23,08,05,17.90
2017,06,23,08,06,18.00
2017,06,23,08,07,18.00
2017,06,23,08,08,18.00
2017,06,23,08,09,18.10
2017,06,23,08,10,18.10
2017,06,23,08,11,18.10
2017,06,23,08,12,18.20
2017,06,23,08,13,18.20
2017,06,23,08,14,18.30
2017,06,23,08,15,18.30
2017,06,23,08,16,18.40
2017,06,23,08,17,18.40
2017,06,23,08,18,18.40
2017,06,23,08,19,18.30
2017,06,23,08,20,18.30
2017,06,23,08,21,18.20
2017,06,23,08,22,18.10
2017,06,23,08,23,18.10
2017,06,23,08,24,18.10
2017,06,23,08,25,18.10
2017,06,23,08,26,18.10
2017,06,23,08,27,18.20
2017,06,23,08,28,18.20
2017,06,23,08,29,18.20
2017,06,23,08,30,18.30
2017,06,23,08,31,18.30
2017,06,23,08,32,18.40
2017,06,23,08,33,18.40
2017,06,23,08,34,18.40
2017,06,23,08,35,18.40
2017,06,23,08,36,18.40
2017,06,23,08,37,18.40
2017,06,23,08,38,18.40
2017,06,23,08,39,18.40
2017,06,23,08,40,18.50
2017,06,23,08,41,18.60
2017,06,23,08,42,18.60
2017,06,23,08,43,18.60
2017,06,23,08,44,18.60
2017,06,23,08,45,18.60
2017,06,23,08,46,18.60
2017,06,23,08,47,18.70
2017,06,23,08,48,18.70
2017,06,23,08,49,18.60
2017,06,23,08,50,18.60
2017,06,23,08,51,18.60
2017,06,23,08,52,18.60
2017,06,23,08,53,18.70
2017,06,23,08,54,18.70
2017,06,23,08,55,18.70
2017,06,23,08,56,18.70
2017,06,23,08,57,18.70
2017,06,23,08,58,18.80
2017,06,23,08,59,18.80
2017,06,23,09,00,18.80
2017,06,23,09,01,18.80
2017,06,23,09,02,18.70
2017,06,23,09,03,18.70
2017,06,23,09,04,18.70
2017,06,23,09,05,18.70
2017,06,23,09,06,18.70
2017,06,23,09,07,18.80
2017,06,23,09,08,18.80
2017,06,23,09,09,18.90
2017,06,23,09,10,19.00
2017,06,23,09,11,19.00
2017,06,23,09,12,18.90
2017,06,23,09,13,18.90
2017,06,23,09,14,18.80
2017,06,23,09,15,18.90
2017,06,23,09,16,18.90
2017,06,23,09,17,18.90
2017,06,23,09,18,18.90
2017,06,23,09,19,18.90
2017,06,23,09,20,19.00
2017,06,23,09,21,19.00
2017,06,23,09,22,19.10
2017,06,23,09,23,19.10
2017,06,23,09,24,19.10
2017,06,23,09,25,19.10
2017,06,23,09,26,19.10
2017,06,23,09,27,19.00
2017,06,23,09,28,19.00
2017,06,23,09,29,18.90
2017,06,23,09,30,19.00
2017,06,23,09,31,19.00
2017,06,23,09,32,19.10
2017,06,23,09,33,19.20
2017,06,23,09,34,19.20
2017,06,23,09,35,19.20
2017,06,23,09,36,19.20
2017,06,23,09,37,19.30
2017,06,23,09,38,19.30
2017,06,23,09,39,19.40
2017,06,23,09,40,19.50
2017,06,23,09,41,19.60
2017,06,23,09,42,19.70
2017,06,23,09,43,19.70
2017,06,23,09,44,19.80
2017,06,23,09,45,19.80
2017,06,23,09,46,19.80
2017,06,23,09,47,19.90
2017,06,23,09,48,20.00
2017,06,23,09,49,20.00
2017,06,23,09,50,20.10
2017,06,23,09,51,20.20
2017,06,23,09,52,20.30
2017,06,23,09,53,20.40
2017,06,23,09,54,20.50
2017,06,23,09,55,20.60
2017,06,23,09,56,20.70
2017,06,23,09,57,20.70
2017,06,23,09,58,20.60
2017,06,23,09,59,20.60
2017,06,23,10,00,20.70
2017,06,23,10,01,20.70
2017,06,23,10,02,20.70
2017,06,23,10,03,20.60
2017,06,23,10,04,20.50
2017,06,23,10,05,20.40
2017,06,23,10,06,20.30
2017,06,23,10,07,20.30
2017,06,23,10,08,20.40
2017,06,23,10,09,20.40
2017,06,23,10,10,20.40
2017,06,23,10,11,20.50
2017,06,23,10,12,20.70
2017,06,23,10,13,20.90
2017,06,23,10,14,21.00
2017,06,23,10,15,21.10
2017,06,23,10,16,21.20
2017,06,23,10,17,21.20
2017,06,23,10,18,21.20
2017,06,23,10,19,21.10
2017,06,23,10,20,21.00
2017,06,23,10,21,21.10
2017,06,23,10,22,21.10
2017,06,23,10,23,21.10
2017,06,23,10,24,20.90
2017,06,23,10,25,20.80
2017,06,23,10,26,20.70
2017,06,23,10,27,20.70
2017,06,23,10,28,20.70
2017,06,23,10,29,20.70
2017,06,23,10,30,20.60
2017,06,23,10,31,20.70
2017,06,23,10,32,20.80
2017,06,23,10,33,21.00
2017,06,23,10,34,21.10
2017,06,23,10,35,21.20
2017,06,23,10,36,21.30
2017,06,23,10,37,21.40
2017,06,23,10,38,21.40
2017,06,23,10,39,21.50
2017,06,23,10,40,21.60
2017,06,23,10,41,21.70
2017,06,23,10,42,21.90
2017,06,23,10,43,22.00
2017,06,23,10,44,22.20
2017,06,23,10,45,22.10
2017,06,23,10,46,22.00
2017,06,23,10,47,21.80
2017,06,23,10,48,21.70
2017,06,23,10,49,21.70
2017,06,23,10,50,21.70
2017,06,23,10,51,21.70
2017,06,23,10,52,21.70
2017,06,23,10,53,21.60
2017,06,23,10,54,21.60
2017,06,23,10,55,21.60
2017,06,23,10,56,21.70
2017,06,23,10,57,21.80
2017,06,23,10,58,21.70
2017,06,23,10,59,21.50
2017,06,23,11,00,21.50
2017,06,23,11,01,21.50
2017,06,23,11,02,21.60
2017,06,23,11,03,21.60
2017,06,23,11,04,21.60
2017,06,23,11,05,21.70
2017,06,23,11,06,21.80
2017,06,23,11,07,21.90
2017,06,23,11,08,22.00
2017,06,23,11,09,22.00
2017,06,23,11,10,21.90
2017,06,23,11,11,21.90
2017,06,23,11,12,21.90
2017,06,23,11,13,21.80
2017,06,23,11,14,21.60
2017,06,23,11,15,21.40
2017,06,23,11,16,21.40
2017,06,23,11,17,21.20
2017,06,23,11,18,21.10
2017,06,23,11,19,20.90
2017,06,23,11,20,20.90
2017,06,23,11,21,20.90
2017,06,23,11,22,20.90
2017,06,23,11,23,20.90
2017,06,23,11,24,21.00
2017,06,23,11,25,21.20
2017,06,23,11,26,21.30
2017,06,23,11,27,21.40
2017,06,23,11,28,21.30
2017,06,23,11,29,21.20
2017,06,23,11,30,21.10
2017,06,23,11,31,21.20
2017,06,23,11,32,21.20
2017,06,23,11,33,21.20
2017,06,23,11,34,21.20
2017,06,23,11,35,21.20
2017,06,23,11,36,21.10
2017,06,23,11,37,21.10
2017,06,23,11,38,21.20
2017,06,23,11,39,21.20
2017,06,23,11,40,21.30
2017,06,23,11,41,21.30
2017,06,23,11,42,21.40
2017,06,23,11,43,21.40
2017,06,23,11,44,21.40
2017,06,23,11,45,21.40
2017,06,23,11,46,21.50
2017,06,23,11,47,21.60
2017,06,23,11,48,21.70
2017,06,23,11,49,21.60
2017,06,23,11,50,21.60
2017,06,23,11,51,21.60
2017,06,23,11,52,21.80
2017,06,23,11,53,22.00
2017,06,23,11,54,22.20
2017,06,23,11,55,22.30
2017,06,23,11,56,22.40
2017,06,23,11,57,22.50
2017,06,23,11,58,22.60
2017,06,23,11,59,22.60
2017,06,23,12,00,22.40
2017,06,23,12,01,22.20
2017,06,23,12,02,22.10
2017,06,23,12,03,22.20
2017,06,23,12,04,22.20
2017,06,23,12,05,22.30
2017,06,23,12,06,22.30
2017,06,23,12,07,22.40
2017,06,23,12,08,22.50
2017,06,23,12,09,22.60
2017,06,23,12,10,22.70
2017,06,23,12,11,22.80
2017,06,23,12,12,22.90
2017,06,23,12,13,22.90
2017,06,23,12,14,23.00
2017,06,23,12,15,23.00
2017,06,23,12,16,23.00
2017,06,23,12,17,23.10
2017,06,23,12,18,23.20
2017,06,23,12,19,23.30
2017,06,23,12,20,23.40
2017,06,23,12,21,23.40
2017,06,23,12,22,23.40
2017,06,23,12,23,23.30
2017,06,23,12,24,23.30
2017,06,23,12,25,23.30
2017,06,23,12,26,23.40
2017,06,23,12,27,23.30
2017,06,23,12,28,23.30
2017,06,23,12,29,23.20
2017,06,23,12,30,23.20
2017,06,23,12,31,23.20
2017,06,23,12,32,23.20
2017,06,23,12,33,23.20
2017,06,23,12,34,23.20
2017,06,23,12,35,23.20
2017,06,23,12,36,23.20
2017,06,23,12,37,23.30
2017,06,23,12,38,23.30
2017,06,23,12,39,23.40
2017,06,23,12,40,23.40
2017,06,23,12,41,23.50
2017,06,23,12,42,23.40
2017,06,23,12,43,23.30
2017,06,23,12,44,23.20
2017,06,23,12,45,23.20
2017,06,23,12,46,23.20
2017,06,23,12,47,23.30
2017,06,23,12,48,23.40
2017,06,23,12,49,23.40
2017,06,23,12,50,23.40
2017,06,23,12,51,23.40
2017,06,23,12,52,23.40
2017,06,23,12,53,23.40
2017,06,23,12,54,23.50
2017,06,23,12,55,23.50
2017,06,23,12,56,23.60
2017,06,23,12,57,23.60
2017,06,23,12,58,23.70
2017,06,23,12,59,23.80
2017,06,23,13,00,23.80
2017,06,23,13,01,23.90
2017,06,23,13,02,23.90
2017,06,23,13,03,23.90
2017,06,23,13,04,23.80
2017,06,23,13,05,23.70
2017,06,23,13,06,23.50
2017,06,23,13,07,23.30
2017,06,23,13,08,23.30
2017,06,23,13,09,23.30
2017,06,23,13,10,23.50
2017,06,23,13,11,23.60
2017,06,23,13,12,23.70
2017,06,23,13,13,23.80
2017,06,23,13,14,23.90
2017,06,23,13,15,24.00
2017,06,23,13,16,24.10
2017,06,23,13,17,24.10
2017,06,23,13,18,24.10
2017,06,23,13,19,24.10
2017,06,23,13,20,24.10
2017,06,23,13,21,24.20
2017,06,23,13,22,24.20
2017,06,23,13,23,24.30
2017,06,23,13,24,24.30
2017,06,23,13,25,24.30
2017,06,23,13,26,24.30
2017,06,23,13,27,24.30
2017,06,23,13,28,24.20
2017,06,23,13,29,24.30
2017,06,23,13,30,24.30
2017,06,23,13,31,24.10
2017,06,23,13,32,24.00
2017,06,23,13,33,24.00
2017,06,23,13,34,24.00
2017,06,23,13,35,24.10
2017,06,23,13,36,24.30
2017,06,23,13,37,24.40
2017,06,23,13,38,24.40
2017,06,23,13,39,24.50
2017,06,23,13,40,24.50
2017,06,23,13,41,24.60
2017,06,23,13,42,24.70
2017,06,23,13,43,24.80
2017,06,23,13,44,24.80
2017,06,23,13,45,24.80
2017,06,23,13,46,24.70
2017,06,23,13,47,24.70
2017,06,23,13,48,24.60
2017,06,23,13,49,24.40
2017,06,23,13,50,24.30
2017,06,23,13,51,24.30
2017,06,23,13,52,24.30
2017,06,23,13,53,24.30
2017,06,23,13,54,24.30
2017,06,23,13,55,24.30
2017,06,23,13,56,24.40
2017,06,23,13,57,24.40
2017,06,23,13,58,24.40
2017,06,23,13,59,24.40
2017,06,23,14,00,24.50
2017,06,23,14,01,24.40
2017,06,23,14,02,24.50
2017,06,23,14,03,24.50
2017,06,23,14,04,24.30
2017,06,23,14,05,24.00
2017,06,23,14,06,24.00
2017,06,23,14,07,24.00
2017,06,23,14,08,24.00
2017,06,23,14,09,23.80
2017,06,23,14,10,23.70
2017,06,23,14,11,23.60
2017,06,23,14,12,23.50
2017,06,23,14,13,23.40
2017,06,23,14,14,23.30
2017,06,23,14,15,23.20
2017,06,23,14,16,23.20
2017,06,23,14,17,23.30
2017,06,23,14,18,23.50
2017,06,23,14,19,23.70
2017,06,23,14,20,23.80
2017,06,23,14,21,23.90
2017,06,23,14,22,23.90
2017,06,23,14,23,23.90
2017,06,23,14,24,23.70
2017,06,23,14,25,23.70
2017,06,23,14,26,23.70
2017,06,23,14,27,23.70
2017,06,23,14,28,23.80
2017,06,23,14,29,24.00
2017,06,23,14,30,24.20
2017,06,23,14,31,24.40
2017,06,23,14,32,24.40
2017,06,23,14,33,24.40
2017,06,23,14,34,24.40
2017,06,23,14,35,24.40
2017,06,23,14,36,24.30
2017,06,23,14,37,24.30
2017,06,23,14,38,24.20
2017,06,23,14,39,24.10
2017,06,23,14,40,24.00
2017,06,23,14,41,24.00
2017,06,23,14,42,24.00
2017,06,23,14,43,24.20
2017,06,23,14,44,24.30
2017,06,23,14,45,24.40
2017,06,23,14,46,24.40
2017,06,23,14,47,24.40
2017,06,23,14,48,24.40
2017,06,23,14,49,24.30
2017,06,23,14,50,24.30
2017,06,23,14,51,24.20
2017,06,23,14,52,24.20
2017,06,23,14,53,24.40
2017,06,23,14,54,24.40
2017,06,23,14,55,24.30
2017,06,23,14,56,24.30
2017,06,23,14,57,24.30
2017,06,23,14,58,24.40
2017,06,23,14,59,24.50
2017,06,23,15,00,24.40
2017,06,23,15,01,24.40
2017,06,23,15,02,24.60
2017,06,23,15,03,24.70
2017,06,23,15,04,24.80
2017,06,23,15,05,24.80
2017,06,23,15,06,24.90
2017,06,23,15,07,24.90
2017,06,23,15,08,24.80
2017,06,23,15,09,24.80
2017,06,23,15,10,24.80
2017,06,23,15,11,24.80
2017,06,23,15,12,24.80
2017,06,23,15,13,24.80
2017,06,23,15,14,24.90
2017,06,23,15,15,24.80
2017,06,23,15,16,24.70
2017,06,23,15,17,24.70
2017,06,23,15,18,24.70
2017,06,23,15,19,24.80
2017,06,23,15,20,25.00
2017,06,23,15,21,25.00
2017,06,23,15,22,25.10
2017,06,23,15,23,25.30
2017,06,23,15,24,25.40
2017,06,23,15,25,25.50
2017,06,23,15,26,25.60
2017,06,23,15,27,25.70
2017,06,23,15,28,25.80
2017,06,23,15,29,25.70
2017,06,23,15,30,25.70
2017,06,23,15,31,25.50
2017,06,23,15,32,25.40
2017,06,23,15,33,25.40
2017,06,23,15,34,25.30
2017,06,23,15,35,25.30
2017,06,23,15,36,25.30
2017,06,23,15,37,25.30
2017,06,23,15,38,25.30
2017,06,23,15,39,25.20
2017,06,23,15,40,25.10
2017,06,23,15,41,25.10
2017,06,23,15,42,25.00
2017,06,23,15,43,25.00
2017,06,23,15,44,25.00
2017,06,23,15,45,25.10
2017,06,23,15,46,25.10
2017,06,23,15,47,25.20
2017,06,23,15,48,25.30
2017,06,23,15,49,25.20
2017,06,23,15,50,25.20
2017,06,23,15,51,25.20
2017,06,23,15,52,25.20
2017,06,23,15,53,25.30
2017,06,23,15,54,25.30
2017,06,23,15,55,25.30
2017,06,23,15,56,25.40
2017,06,23,15,57,25.40
2017,06,23,15,58,25.20
2017,06,23,15,59,25.20
2017,06,23,16,00,25.30
2017,06,23,16,01,25.40
2017,06,23,16,02,25.50
2017,06,23,16,03,25.70
2017,06,23,16,04,25.90
2017,06,23,16,05,25.90
2017,06,23,16,06,25.90
2017,06,23,16,07,26.00
2017,06,23,16,08,26.10
2017,06,23,16,09,26.00
2017,06,23,16,10,25.80
2017,06,23,16,11,25.60
2017,06,23,16,12,25.50
2017,06,23,16,13,25.60
2017,06,23,16,14,25.70
2017,06,23,16,15,25.80
2017,06,23,16,16,25.80
2017,06,23,16,17,25.80
2017,06,23,16,18,25.90
2017,06,23,16,19,26.00
2017,06,23,16,20,26.10
2017,06,23,16,21,26.20
2017,06,23,16,22,26.20
2017,06,23,16,23,26.40
2017,06,23,16,24,26.50
2017,06,23,16,25,26.60
2017,06,23,16,26,26.60
2017,06,23,16,27,26.50
2017,06,23,16,28,26.40
2017,06,23,16,29,26.40
2017,06,23,16,30,26.50
2017,06,23,16,31,26.60
2017,06,23,16,32,26.60
2017,06,23,16,33,26.70
2017,06,23,16,34,26.60
2017,06,23,16,35,26.60
2017,06,23,16,36,26.50
2017,06,23,16,37,26.50
2017,06,23,16,38,26.60
2017,06,23,16,39,26.60
2017,06,23,16,40,26.60
2017,06,23,16,41,26.70
2017,06,23,16,42,26.70
2017,06,23,16,43,26.70
2017,06,23,16,44,26.70
2017,06,23,16,45,26.70
2017,06,23,16,46,26.70
2017,06,23,16,47,26.70
2017,06,23,16,48,26.60
2017,06,23,16,49,26.50
2017,06,23,16,50,26.40
2017,06,23,16,51,26.40
2017,06,23,16,52,26.40
2017,06,23,16,53,26.40
2017,06,23,16,54,26.40
2017,06,23,16,55,26.50
2017,06,23,16,56,26.60
2017,06,23,16,57,26.60
2017,06,23,16,58,26.60
2017,06,23,16,59,26.50
2017,06,23,17,00,26.50
2017,06,23,17,01,26.50
2017,06,23,17,02,26.30
2017,06,23,17,03,26.30
2017,06,23,17,04,26.20
2017,06,23,17,05,26.10
2017,06,23,17,06,26.10
2017,06,23,17,07,26.10
2017,06,23,17,08,26.10
2017,06,23,17,09,26.00
2017,06,23,17,10,25.90
2017,06,23,17,11,25.80
2017,06,23,17,12,25.80
2017,06,23,17,13,25.80
2017,06,23,17,14,25.90
2017,06,23,17,15,26.00
2017,06,23,17,16,26.10
2017,06,23,17,17,26.10
2017,06,23,17,18,26.20
2017,06,23,17,19,26.20
2017,06,23,17,20,26.20
2017,06,23,17,21,26.20
2017,06,23,17,22,26.20
2017,06,23,17,23,26.20
2017,06,23,17,24,26.20